Flag for United Kingdom Weather past 2 weeks in Stornoway, Scotland, United Kingdom

Now
48 °F

Cool.


Feels Like: 44 °F
Forecast: 50 / 55 °F
Wind: 10 mph from North

Location: Stornoway

Current Time: Aug 22, 2014 at 10:38:29 PM

Latest Report: Aug 22, 2014 at 9:50 PM


Visibility: N/A

Pressure: 29.95 "Hg

Humidity: 87%

Dew point: 45 °F

Location of StornowayLocation

Historic Weather in Stornoway — Graph

°F

Stornoway temperature yesterday

Maximum temperature yesterday: 57 °F (at 12:20 PM)
Minimum temperature yesterday: 46 °F (at 5:20 AM)
Average temperature yesterday: 52 °F

Past Weeks' High & Low Weather Summary

 TemperatureHumidityPressure
High64 °F (Aug 8, 11:20 AM)94% (Aug 9, 6:20 AM)30.07 "Hg (Aug 9, 6:20 AM)
Low43 °F (Aug 19, 1:50 AM)59% (Aug 9, 5:50 PM)29.18 "Hg (Aug 11, 8:20 AM)
Average55 °F82%29.70 "Hg
* Reported Aug 7 9:20 PM — Aug 22 9:20 PM, Stornoway, Weather by CustomWeather, © 2014

Note: Actual official high and low records may vary slightly from our data, if they occured in-between our weather recording intervals... More about our weather records

Advertising

Stornoway weather history for previous 24 hours

 ConditionsComfort  
Time TempWeatherWind HumidityBarometerVisibility
9:20 PM
Aug 22
50 °FScattered clouds.10 mph82%29.95 "HgN/A
8:50 PM50 °FPassing clouds.7 mph88%29.92 "HgN/A
8:20 PM50 °FLight rain. Scattered clouds.7 mph88%29.92 "Hg4 mi
7:50 PM50 °FRain. Partly sunny.14 mph88%29.92 "Hg4 mi
7:20 PM52 °FSprinkles. Scattered clouds.18 mph82%29.92 "HgN/A
6:50 PM55 °FScattered showers. Scattered clouds.16 mph77%29.92 "HgN/A
6:20 PM55 °FScattered showers. Scattered clouds.17 mph77%29.89 "HgN/A
5:50 PM54 °FScattered showers. Scattered clouds.16 mph82%29.89 "HgN/A
5:20 PM57 °FScattered showers. Scattered clouds.17 mph77%29.89 "HgN/A
4:50 PM57 °FScattered showers. Scattered clouds.15 mph72%29.89 "HgN/A
4:20 PM57 °FScattered showers. Scattered clouds.15 mph77%29.89 "HgN/A
3:50 PM55 °FSprinkles. Scattered clouds.16 mph77%29.89 "HgN/A
3:20 PM59 °FSprinkles. Scattered clouds.12 mph72%29.89 "HgN/A
2:50 PM57 °FSprinkles. Scattered clouds.12 mph77%29.89 "HgN/A
2:20 PM54 °FSprinkles. Passing clouds.21 mph82%29.89 "HgN/A
1:50 PM57 °FPassing clouds.14 mph72%29.89 "HgN/A
1:20 PM55 °FScattered clouds.15 mph72%29.89 "HgN/A
12:50 PM57 °FScattered clouds.15 mph67%29.89 "HgN/A
12:20 PM55 °FScattered clouds.15 mph72%29.89 "HgN/A
11:50 AM57 °FScattered clouds.14 mph72%29.89 "HgN/A
11:20 AM54 °FScattered clouds.12 mph77%29.86 "HgN/A
10:50 AM55 °FScattered showers. Scattered clouds.13 mph77%29.86 "HgN/A
10:20 AM55 °FScattered showers. Scattered clouds.12 mph77%29.86 "HgN/A
9:50 AM52 °FScattered showers. Scattered clouds.7 mph82%29.86 "HgN/A
9:20 AM55 °FScattered showers. Scattered clouds.10 mph72%29.86 "HgN/A
8:50 AM54 °FScattered showers. Scattered clouds.6 mph77%29.86 "HgN/A
8:20 AM52 °FScattered showers. Scattered clouds.6 mph82%29.86 "HgN/A
7:50 AM50 °FScattered showers. Scattered clouds.7 mph82%29.86 "HgN/A
7:20 AM48 °FScattered showers. Scattered clouds.8 mph82%29.86 "HgN/A
6:50 AM48 °FScattered showers. Passing clouds.10 mph82%29.86 "HgN/A
6:20 AM48 °FPassing clouds.10 mph82%29.86 "HgN/A
5:50 AM48 °FPassing clouds.8 mph82%29.86 "HgN/A
5:20 AM48 °FPassing clouds.12 mph82%29.86 "HgN/A
4:50 AM46 °FPassing clouds.12 mph87%29.86 "HgN/A
4:20 AM48 °FPassing clouds.12 mph82%29.86 "HgN/A
3:20 AM46 °FPassing clouds.9 mph87%29.86 "HgN/A
2:50 AM48 °FPassing clouds.7 mph82%29.86 "HgN/A
2:20 AM48 °FPassing clouds.14 mph87%29.86 "HgN/A
1:50 AM48 °FPassing clouds.10 mph87%29.86 "HgN/A
1:20 AM48 °FPassing clouds.8 mph87%29.86 "HgN/A
12:50 AM48 °FPassing clouds.6 mph87%29.86 "HgN/A
12:20 AM46 °FPassing clouds.3 mph87%29.86 "HgN/A
11:50 PM
Aug 21
48 °FLight rain. Passing clouds.9 mph87%29.86 "Hg6 mi
11:20 PM48 °FCool.9 mph82%29.86 "HgN/A
10:50 PM48 °FScattered showers. Passing clouds.9 mph87%29.86 "HgN/A
10:20 PM48 °FScattered showers. Passing clouds.6 mph87%29.83 "HgN/A
Weather by CustomWeather, © 2014

See weather overviewHow to use our weather pages